| time (UTC) | temp C | wind direction | speed KPH | gust KPH | rain 1hr cm | rain 24hr cm | rain mn cm | humidity % | barometer mb |
| 20260504081803 | 8 | 80 | 0.0 | 3.2 | 0.00 | 0.00 | 0.00 | 60 | |
| 20260504080903 | 8 | 80 | 1.6 | 6.4 | 0.00 | 0.00 | 0.00 | 57 | |
| 20260504050003 | 14 | 159 | 3.2 | 6.4 | 0.00 | 0.00 | 0.00 | 42 | |
| 20260504045613 | 14 | 154 | 3.2 | 9.7 | 0.00 | 0.00 | 0.00 | 42 | |
| 20260504044712 | 14 | 157 | 1.6 | 11.3 | 0.00 | 0.00 | 0.00 | 42 | |
| 20260504043603 | 15 | 284 | 0.0 | 3.2 | 0.00 | 0.00 | 0.00 | 40 | |
| 20260504042703 | 15 | 279 | 4.8 | 9.7 | 0.00 | 0.00 | 0.00 | 40 | |
| 20260504042012 | 15 | 257 | 3.2 | 9.7 | 0.00 | 0.00 | 0.00 | 39 | |
| 20260504040903 | 16 | 114 | 3.2 | 8.0 | 0.00 | 0.00 | 0.00 | 38 | |
| 20260504040003 | 16 | 121 | 8.0 | 19.3 | 0.00 | 0.00 | 0.00 | 37 | |
| 20260504035403 | 16 | 198 | 6.4 | 19.3 | 0.00 | 0.00 | 0.00 | 33 | |
| 20260504034505 | 16 | 121 | 3.2 | 4.8 | 0.00 | 0.00 | 0.00 | 38 | |
| 20260504033813 | 16 | 126 | 4.8 | 11.3 | 0.00 | 0.00 | 0.00 | 38 | |
| 20260504032703 | 15 | 180 | 4.8 | 11.3 | 0.00 | 0.00 | 0.00 | 39 | |
| 20260504031803 | 16 | 155 | 6.4 | 14.5 | 0.00 | 0.00 | 0.00 | 39 | |
| 20260504030903 | 16 | 144 | 8.0 | 20.9 | 0.00 | 0.00 | 0.00 | 39 | |
| 20260504030004 | 16 | 153 | 9.7 | 20.9 | 0.00 | 0.00 | 0.00 | 38 | |
| 20260504025403 | 16 | 147 | 9.7 | 25.7 | 0.00 | 0.00 | 0.00 | 38 | |
| 20260504024503 | 16 | 159 | 8.0 | 20.9 | 0.00 | 0.00 | 0.00 | 38 | |
| 20260504023603 | 15 | 119 | 6.4 | 16.1 | 0.00 | 0.00 | 0.00 | 39 | |
| 20260504022703 | 15 | 110 | 6.4 | 17.7 | 0.00 | 0.00 | 0.00 | 41 | |
| 20260504021803 | 15 | 96 | 11.3 | 27.4 | 0.00 | 0.00 | 0.00 | 41 | |
| 20260504020903 | 15 | 107 | 11.3 | 27.4 | 0.00 | 0.00 | 0.00 | 42 | |
| 20260504020003 | 15 | 110 | 11.3 | 27.4 | 0.00 | 0.00 | 0.00 | 42 | |
| 20260504015403 | 16 | 129 | 11.3 | 25.7 | 0.00 | 0.00 | 0.00 | 41 | |
| 20260504014503 | 16 | 139 | 9.7 | 24.1 | 0.00 | 0.00 | 0.00 | 39 | |
| 20260504013603 | 17 | 148 | 14.5 | 29.0 | 0.00 | 0.00 | 0.00 | 35 | |
| 20260504012914 | 17 | 149 | 17.7 | 33.8 | 0.00 | 0.00 | 0.00 | 34 | |
| 20260504011803 | 18 | 141 | 12.9 | 29.0 | 0.00 | 0.00 | 0.00 | 31 | |
| 20260504010903 | 18 | 149 | 11.3 | 20.9 | 0.00 | 0.00 | 0.00 | 31 | |
| 20260504010214 | 18 | 151 | 8.0 | 20.9 | 0.00 | 0.00 | 0.00 | 31 | |
| 20260504005403 | 18 | 153 | 9.7 | 24.1 | 0.00 | 0.00 | 0.00 | 31 | |
| 20260504004503 | 18 | 139 | 14.5 | 33.8 | 0.00 | 0.00 | 0.00 | 30 | |
| 20260504003603 | 18 | 141 | 19.3 | 33.8 | 0.00 | 0.00 | 0.00 | 30 | |
| 20260504002913 | 18 | 149 | 20.9 | 37.0 | 0.00 | 0.00 | 0.00 | 30 | |
| 20260504001803 | 20 | 156 | 11.3 | 43.5 | 0.00 | 0.00 | 0.00 | 28 | |
| 20260504000903 | 20 | 153 | 9.7 | 20.9 | 0.00 | 0.00 | 0.00 | 26 | |
| 20260504000003 | 21 | 153 | 12.9 | 25.7 | 0.00 | 0.00 | 0.00 | 25 | |
| 20260503235403 | 21 | 164 | 12.9 | 27.4 | 0.00 | 0.00 | 0.00 | 25 | |
| 20260503234503 | 21 | 154 | 16.1 | 29.0 | 0.00 | 0.00 | 0.00 | 25 | |
| 20260503233603 | 22 | 170 | 14.5 | 35.4 | 0.00 | 0.00 | 0.00 | 24 | |
| 20260503232703 | 23 | 187 | 9.7 | 20.9 | 0.00 | 0.00 | 0.00 | 23 | |
| 20260503232012 | 23 | 210 | 9.7 | 20.9 | 0.00 | 0.00 | 0.00 | 22 | |
| 20260503230903 | 23 | 191 | 9.7 | 29.0 | 0.00 | 0.00 | 0.00 | 23 | |
| 20260503230003 | 23 | 143 | 11.3 | 20.9 | 0.00 | 0.00 | 0.00 | 22 | |
| 20260503225403 | 23 | 132 | 11.3 | 20.9 | 0.00 | 0.00 | 0.00 | 21 | |
| 20260503224503 | 23 | 130 | 8.0 | 24.1 | 0.00 | 0.00 | 0.00 | 21 | |
| 20260503223813 | 23 | 112 | 8.0 | 16.1 | 0.00 | 0.00 | 0.00 | 22 | |
| 20260503222703 | 23 | 164 | 8.0 | 17.7 | 0.00 | 0.00 | 0.00 | 22 | |
| 20260503221803 | 24 | 230 | 12.9 | 24.1 | 0.00 | 0.00 | 0.00 | 23 | |
| 20260503221113 | 24 | 210 | 12.9 | 24.1 | 0.00 | 0.00 | 0.00 | 22 | |
| 20260503220003 | 25 | 191 | 9.7 | 22.5 | 0.00 | 0.00 | 0.00 | 21 | |
| 20260503215403 | 24 | 171 | 11.3 | 22.5 | 0.00 | 0.00 | 0.00 | 21 | |
| 20260503214503 | 24 | 184 | 11.3 | 29.0 | 0.00 | 0.00 | 0.00 | 21 | |
| 20260503213603 | 24 | 166 | 11.3 | 20.9 | 0.00 | 0.00 | 0.00 | 22 | |
| 20260503212703 | 24 | 187 | 16.1 | 29.0 | 0.00 | 0.00 | 0.00 | 21 | |
| 20260503211803 | 25 | 209 | 14.5 | 29.0 | 0.00 | 0.00 | 0.00 | 21 | |
| 20260503210903 | 24 | 194 | 11.3 | 33.8 | 0.00 | 0.00 | 0.00 | 22 | |
| 20260503210003 | 24 | 197 | 11.3 | 22.5 | 0.00 | 0.00 | 0.00 | 21 | |
| 20260503205403 | 23 | 229 | 11.3 | 22.5 | 0.00 | 0.00 | 0.00 | 21 | |
| 20260503204503 | 24 | 208 | 11.3 | 22.5 | 0.00 | 0.00 | 0.00 | 20 | |
| 20260503203813 | 24 | 213 | 9.7 | 22.5 | 0.00 | 0.00 | 0.00 | 21 | |
| 20260503202703 | 23 | 217 | 11.3 | 27.4 | 0.00 | 0.00 | 0.00 | 22 | |
| 20260503201803 | 23 | 187 | 11.3 | 30.6 | 0.00 | 0.00 | 0.00 | 22 | |
| 20260503200903 | 23 | 236 | 16.1 | 25.7 | 0.00 | 0.00 | 0.00 | 21 | |
| 20260503200003 | 23 | 207 | 11.3 | 30.6 | 0.00 | 0.00 | 0.00 | 21 | |
| 20260503195403 | 23 | 196 | 9.7 | 29.0 | 0.00 | 0.00 | 0.00 | 21 | |
| 20260503194503 | 23 | 220 | 11.3 | 20.9 | 0.00 | 0.00 | 0.00 | 21 | |
| 20260503193603 | 22 | 205 | 12.9 | 24.1 | 0.00 | 0.00 | 0.00 | 21 | |
| 20260503192703 | 23 | 201 | 12.9 | 29.0 | 0.00 | 0.00 | 0.00 | 20 | |
| 20260503191803 | 22 | 175 | 14.5 | 33.8 | 0.00 | 0.00 | 0.00 | 20 | |
| 20260503190903 | 22 | 180 | 14.5 | 32.2 | 0.00 | 0.00 | 0.00 | 20 | |
| 20260503190003 | 22 | 193 | 14.5 | 40.2 | 0.00 | 0.00 | 0.00 | 22 | |
| 20260503185403 | 22 | 198 | 14.5 | 40.2 | 0.00 | 0.00 | 0.00 | 21 | |
| 20260503184503 | 22 | 210 | 12.9 | 27.4 | 0.00 | 0.00 | 0.00 | 22 | |
| 20260503183603 | 23 | 213 | 12.9 | 29.0 | 0.00 | 0.00 | 0.00 | 21 | |
| 20260503182704 | 22 | 199 | 16.1 | 35.4 | 0.00 | 0.00 | 0.00 | 22 | |
| 20260503181803 | 22 | 213 | 11.3 | 32.2 | 0.00 | 0.00 | 0.00 | 24 | |
| 20260503180903 | 21 | 212 | 11.3 | 24.1 | 0.00 | 0.00 | 0.00 | 24 | |
| 20260503180003 | 22 | 214 | 12.9 | 27.4 | 0.00 | 0.00 | 0.00 | 23 | |
| 20260503175403 | 22 | 210 | 11.3 | 20.9 | 0.00 | 0.00 | 0.00 | 23 | |
| 20260503174712 | 22 | 203 | 12.9 | 22.5 | 0.00 | 0.00 | 0.00 | 23 | |
| 20260503173603 | 22 | 209 | 11.3 | 20.9 | 0.00 | 0.00 | 0.00 | 24 | |
| 20260503172913 | 21 | 201 | 12.9 | 25.7 | 0.00 | 0.00 | 0.00 | 24 | |
| 20260503171803 | 21 | 206 | 11.3 | 24.1 | 0.00 | 0.00 | 0.00 | 23 | |
| 20260503170903 | 21 | 215 | 9.7 | 19.3 | 0.00 | 0.00 | 0.00 | 22 | |
| 20260503150903 | 13 | 341 | 3.2 | 4.8 | 0.00 | 0.00 | 0.00 | 38 | |
| 20260503150214 | 12 | 341 | 3.2 | 8.0 | 0.00 | 0.00 | 0.00 | 37 | |
| 20260503130903 | 5 | 149 | 1.6 | 9.7 | 0.00 | 0.00 | 0.00 | 49 |